FW1989 Weather Reports


time (UTC)temp
F
wind
direction
speed
knots
gust
knots
rain 1hr
in
rain 24hr
in
rain mn
in
humidity
%
barometer
mb
20260503203014 53 153 11.3 14.8 0.00 0.09 0.09 78 1010.9
20260503201507 52 138 8.7 12.2 0.00 0.09 0.09 82 1011.3
20260503200003 50 130 7.0 11.3 0.01 0.09 0.09 84 1011.9
20260503194600 49 138 7.0 12.2 0.07 0.09 0.09 84 1012.4
20260503193101 48 148 4.3 8.7 0.09 0.09 0.09 84 1012.8
20260503191617 48 153 2.6 5.2 0.09 0.09 0.09 83 1013.1
20260503190051 48 218 5.2 16.5 0.08 0.08 0.08 78 1014.0
20260503184557 50 209 4.3 7.8 0.02 0.02 0.02 76 1014.2
20260503183107 51 293 8.7 22.6 0.00 0.00 0.00 72 1014.2
20260503181546 53 249 20.9 30.4 0.00 0.00 0.00 60 1013.7
20260503180047 57 217 10.4 15.6 0.00 0.00 0.00 52 1013.3
20260503174545 58 245 13.0 24.3 0.00 0.00 0.00 50 1013.4
20260503173110 59 206 8.7 21.7 0.00 0.00 0.00 49 1013.6
20260503171545 58 200 11.3 23.5 0.00 0.00 0.00 50 1013.8
20260503081524 43 217 6.1 8.7 0.00 0.00 0.00 64 1015.6
20260503071516 43 222 5.2 9.6 0.00 0.00 0.00 63 1015.8
20260503054504 43 203 5.2 7.8 0.00 0.00 0.00 61 1016.4
20260503053001 43 207 6.1 8.7 0.00 0.00 0.00 60 1016.6
20260503051606 43 208 5.2 7.8 0.00 0.00 0.00 61 1016.6
20260503050057 43 208 6.1 7.8 0.00 0.00 0.00 62 1016.7
20260503044600 43 205 6.1 7.8 0.00 0.00 0.00 63 1016.7
20260503043055 43 209 5.2 7.0 0.00 0.00 0.00 63 1016.7
20260503041605 43 208 4.3 7.0 0.00 0.00 0.00 63 1016.7
20260503040056 44 204 4.3 7.0 0.00 0.00 0.00 62 1016.7
20260503034604 44 208 5.2 6.1 0.00 0.00 0.00 62 1016.7
20260503033052 44 207 6.1 7.0 0.00 0.00 0.00 62 1016.7
20260503031547 44 205 5.2 7.0 0.00 0.00 0.00 61 1016.7
20260503030053 41 207 3.5 5.2 0.00 0.00 0.00 69 1016.8
20260503024548 42 221 1.7 3.5 0.00 0.00 0.00 68 1016.9
20260503023045 43 275 0.9 2.6 0.00 0.00 0.00 66 1016.9
20260503021546 43 285 0.9 1.7 0.00 0.00 0.00 61 1016.9
20260503020046 45 286 0.0 0.0 0.00 0.00 0.00 57 1016.8
20260503014548 46 286 0.9 1.7 0.00 0.00 0.00 51 1016.7
20260503013043 47 294 0.9 2.6 0.00 0.00 0.00 46 1016.5
20260503011544 48 294 0.0 1.7 0.00 0.00 0.00 41 1016.6
20260503010045 48 294 0.0 1.7 0.00 0.00 0.00 42 1016.5
20260503004543 49 330 0.0 2.6 0.00 0.00 0.00 41 1016.5
20260503003041 49 331 1.7 4.3 0.00 0.00 0.00 40 1016.5
20260503001540 50 333 4.3 7.0 0.00 0.00 0.00 42 1016.5
20260503000039 50 331 7.8 11.3 0.00 0.00 0.00 40 1016.4
20260502234539 50 348 6.1 8.7 0.00 0.00 0.00 39 1016.4
20260502233043 51 344 8.7 13.0 0.00 0.00 0.00 38 1016.4
20260502231537 51 355 7.0 13.0 0.00 0.00 0.00 39 1016.5
20260502230036 52 360 9.6 14.8 0.00 0.00 0.00 39 1016.5
20260502224535 51 346 9.6 16.5 0.00 0.00 0.00 35 1016.5
20260502223036 52 323 8.7 17.4 0.00 0.00 0.00 34 1016.5
20260502221534 52 316 10.4 14.8 0.00 0.00 0.00 36 1016.5
20260502220040 51 321 13.9 19.1 0.00 0.00 0.00 36 1016.6
20260502214533 51 350 10.4 17.4 0.00 0.00 0.00 36 1016.5
20260502213029 51 9 10.4 16.5 0.00 0.00 0.00 38 1016.5
20260502211542 51 355 15.6 19.1 0.00 0.00 0.00 38 1016.4
20260502210027 50 321 13.0 17.4 0.00 0.00 0.00 39 1016.5
20260502204526 51 329 11.3 18.2 0.00 0.00 0.00 38 1016.6